Location: Pabrico
(37.5827°N, 122.0063°W)
Time: 23:59:41
(UTC+00:00)

Cosmos 494 Rocket - Pass Details

Date: 13 April 2024
Orbit: 740 x 768 km, 74.1° (Epoch: 21 May)

Event Time Altitude Azimuth Distance (km) Brightness Sun altitude
Exits shadow 13:02:22 - 217° (SW) 2,951 6.5 -7.1°
Reaches altitude 10° 13:04:12 10° 223° (SW) 2,273 5.9 -6.7°
Maximum altitude 13:09:03 40° 293° (WNW) 1,094 4.5 -5.8°
Drops below altitude 10° 13:13:53 10° 3° (N) 2,270 6.7 -4.9°
Sets 13:16:22 0° 11° (N) 3,194 7.6 -4.4°
